Time,TemperatureF,DewpointF,PressureIn,WindDirection,WindDirectionDegrees,WindSpeedMPH,WindSpeedGustMPH,Humidity,HourlyPrecipIn,Conditions,Clouds,dailyrainin,SoftwareType,DateUTC
2013-11-07 00:02:00,42.2,39.2,30.05,WNW,293,2.0,2.0,89,0.00,,,0.45,WUHU216HW,2013-11-07 05:02:00,
2013-11-07 00:07:00,42.2,39.2,30.05,NW,315,0.0,2.0,89,0.00,,,0.00,WUHU216HW,2013-11-07 05:07:00,
2013-11-07 00:09:00,42.0,39.0,30.05,NNW,338,0.0,2.0,89,0.00,,,0.00,WUHU216HW,2013-11-07 05:09:00,
2013-11-07 00:17:00,42.0,39.0,30.05,West,270,1.1,5.5,89,0.00,,,0.00,WUHU216HW,2013-11-07 05:17:00,
2013-11-07 00:27:00,41.7,38.7,30.05,NW,315,7.1,7.1,89,0.00,,,0.00,WUHU216HW,2013-11-07 05:27:00,
2013-11-07 00:37:00,41.7,38.7,30.05,WSW,248,2.9,7.1,89,0.00,,,0.00,WUHU216HW,2013-11-07 05:37:00,
2013-11-07 00:47:00,41.7,38.7,30.06,West,270,0.0,2.9,89,0.00,,,0.00,WUHU216HW,2013-11-07 05:47:00,
2013-11-07 00:56:00,41.5,38.5,30.06,NNW,338,0.0,4.6,89,0.00,,,0.00,WUHU216HW,2013-11-07 05:56:00,
2013-11-07 01:06:00,41.5,38.5,30.06,West,270,3.5,6.4,89,0.00,,,0.00,WUHU216HW,2013-11-07 06:06:00,
2013-11-07 01:16:00,41.3,38.3,30.06,NNW,338,0.0,3.5,89,0.00,,,0.00,WUHU216HW,2013-11-07 06:16:00,
2013-11-07 01:19:00,41.3,38.3,30.06,NNW,338,0.0,3.5,89,0.00,,,0.00,WUHU216HW,2013-11-07 06:19:00,
2013-11-07 01:23:00,41.1,38.1,30.07,West,270,5.1,5.8,89,0.00,,,0.00,WUHU216HW,2013-11-07 06:23:00,
2013-11-07 01:29:00,41.1,38.1,30.07,West,270,5.3,5.3,89,0.00,,,0.00,WUHU216HW,2013-11-07 06:29:00,
2013-11-07 01:36:00,41.1,38.1,30.07,NW,315,1.7,5.3,89,0.00,,,0.00,WUHU216HW,2013-11-07 06:36:00,
2013-11-07 01:42:00,41.0,37.9,30.07,West,270,0.0,1.7,89,0.00,,,0.00,WUHU216HW,2013-11-07 06:42:00,
2013-11-07 01:49:00,40.8,37.8,30.07,West,270,4.4,4.4,89,0.00,,,0.00,WUHU216HW,2013-11-07 06:49:00,
2013-11-07 01:58:00,40.6,37.6,30.07,SSW,203,0.0,4.4,89,0.00,,,0.00,WUHU216HW,2013-11-07 06:58:00,
2013-11-07 02:08:00,40.4,37.4,30.07,West,270,0.0,1.7,89,0.00,,,0.00,WUHU216HW,2013-11-07 07:08:00,
2013-11-07 02:18:00,40.4,37.4,30.08,West,270,3.1,5.3,89,0.00,,,0.00,WUHU216HW,2013-11-07 07:18:00,
2013-11-07 02:28:00,40.4,37.4,30.08,WNW,293,6.2,6.2,89,0.00,,,0.00,WUHU216HW,2013-11-07 07:28:00,
2013-11-07 02:38:00,40.6,37.6,30.08,West,270,0.6,2.4,89,0.00,,,0.00,WUHU216HW,2013-11-07 07:38:00,
2013-11-07 02:48:00,40.6,37.6,30.08,WNW,293,6.2,6.2,89,0.00,,,0.00,WUHU216HW,2013-11-07 07:48:00,
2013-11-07 02:58:00,40.8,37.8,30.08,West,270,0.0,6.4,89,0.00,,,0.00,WUHU216HW,2013-11-07 07:58:00,
2013-11-07 03:08:00,40.6,37.6,30.09,WNW,293,0.0,3.8,89,0.00,,,0.00,WUHU216HW,2013-11-07 08:08:00,
2013-11-07 03:18:00,40.6,37.6,30.09,WNW,293,0.0,5.1,89,0.00,,,0.00,WUHU216HW,2013-11-07 08:18:00,
2013-11-07 03:27:00,40.2,37.2,30.09,WNW,293,0.0,0.0,89,0.00,,,0.00,WUHU216HW,2013-11-07 08:27:00,
2013-11-07 03:37:00,39.9,36.9,30.10,West,270,0.0,0.0,89,0.00,,,0.00,WUHU216HW,2013-11-07 08:37:00,
2013-11-07 03:47:00,39.7,36.7,30.10,West,270,0.0,0.0,89,0.00,,,0.00,WUHU216HW,2013-11-07 08:47:00,
2013-11-07 03:57:00,39.3,36.3,30.10,West,270,0.0,0.0,89,0.00,,,0.00,WUHU216HW,2013-11-07 08:57:00,
2013-11-07 04:07:00,39.0,36.0,30.10,West,270,0.0,0.0,89,0.00,,,0.00,WUHU216HW,2013-11-07 09:07:00,
2013-11-07 04:17:00,38.8,35.8,30.10,West,270,0.8,0.8,89,0.00,,,0.00,WUHU216HW,2013-11-07 09:17:00,
2013-11-07 04:27:00,38.4,35.4,30.11,WNW,293,0.0,0.0,89,0.00,,,0.00,WUHU216HW,2013-11-07 09:27:00,
2013-11-07 04:37:00,38.3,35.3,30.11,WNW,293,2.4,4.4,89,0.00,,,0.00,WUHU216HW,2013-11-07 09:37:00,
2013-11-07 04:47:00,38.1,35.1,30.12,West,270,3.3,5.1,89,0.00,,,0.00,WUHU216HW,2013-11-07 09:47:00,
2013-11-07 04:56:00,37.9,34.9,30.12,West,270,0.0,3.3,89,0.00,,,0.00,WUHU216HW,2013-11-07 09:56:00,
2013-11-07 05:11:00,37.5,34.5,30.12,West,270,0.0,0.0,89,0.00,,,0.00,WUHU216HW,2013-11-07 10:11:00,
2013-11-07 05:16:00,37.4,34.4,30.12,WSW,248,0.0,0.6,89,0.00,,,0.00,WUHU216HW,2013-11-07 10:16:00,
2013-11-07 05:21:00,37.2,34.2,30.12,West,270,0.0,3.5,89,0.00,,,0.00,WUHU216HW,2013-11-07 10:21:00,
2013-11-07 05:26:00,37.2,34.2,30.12,West,270,0.0,3.5,89,0.00,,,0.00,WUHU216HW,2013-11-07 10:26:00,
2013-11-07 05:31:00,37.0,34.0,30.12,NW,315,0.0,1.3,89,0.00,,,0.00,WUHU216HW,2013-11-07 10:31:00,
2013-11-07 05:36:00,37.0,34.0,30.13,NW,315,0.0,1.3,89,0.00,,,0.00,WUHU216HW,2013-11-07 10:36:00,
2013-11-07 05:41:00,36.6,33.6,30.13,NW,315,0.0,0.0,89,0.00,,,0.00,WUHU216HW,2013-11-07 10:41:00,
2013-11-07 05:46:00,36.6,33.6,30.13,WSW,248,0.0,0.0,89,0.00,,,0.00,WUHU216HW,2013-11-07 10:46:00,
2013-11-07 05:51:00,36.3,33.3,30.13,WSW,248,0.0,0.0,89,0.00,,,0.00,WUHU216HW,2013-11-07 10:51:00,
2013-11-07 05:56:00,36.3,33.3,30.14,WSW,248,0.0,0.0,89,0.00,,,0.00,WUHU216HW,2013-11-07 10:56:00,
2013-11-07 06:01:00,36.1,33.1,30.14,WSW,248,0.0,0.0,89,0.00,,,0.00,WUHU216HW,2013-11-07 11:01:00,
2013-11-07 06:06:00,35.9,32.9,30.14,West,270,0.0,1.1,89,0.00,,,0.00,WUHU216HW,2013-11-07 11:06:00,
2013-11-07 06:11:00,35.9,32.9,30.14,West,270,0.0,1.1,89,0.00,,,0.00,WUHU216HW,2013-11-07 11:11:00,
2013-11-07 06:16:00,35.7,32.7,30.15,West,270,0.0,0.0,89,0.00,,,0.00,WUHU216HW,2013-11-07 11:16:00,
2013-11-07 06:21:00,35.7,32.7,30.15,West,270,0.0,0.0,89,0.00,,,0.00,WUHU216HW,2013-11-07 11:21:00,
2013-11-07 06:26:00,35.4,32.4,30.15,West,270,0.0,0.0,89,0.00,,,0.00,WUHU216HW,2013-11-07 11:26:00,
2013-11-07 06:31:00,35.4,32.4,30.15,West,270,0.0,0.0,89,0.00,,,0.00,WUHU216HW,2013-11-07 11:31:00,
2013-11-07 06:36:00,35.2,32.2,30.15,West,270,0.0,0.0,89,0.00,,,0.00,WUHU216HW,2013-11-07 11:36:00,
2013-11-07 06:41:00,35.2,32.2,30.15,West,270,0.0,0.0,89,0.00,,,0.00,WUHU216HW,2013-11-07 11:41:00,
2013-11-07 06:46:00,34.8,31.8,30.16,West,270,0.0,0.8,89,0.00,,,0.00,WUHU216HW,2013-11-07 11:46:00,
2013-11-07 06:51:00,34.8,31.8,30.16,West,270,0.0,0.8,89,0.00,,,0.00,WUHU216HW,2013-11-07 11:51:00,
2013-11-07 06:56:00,34.7,31.7,30.16,WNW,293,1.3,2.4,89,0.00,,,0.00,WUHU216HW,2013-11-07 11:56:00,
2013-11-07 07:01:00,34.3,31.3,30.16,West,270,0.0,2.4,89,0.00,,,0.00,WUHU216HW,2013-11-07 12:01:00,
2013-11-07 07:06:00,34.3,31.3,30.16,West,270,1.5,1.5,89,0.00,,,0.00,WUHU216HW,2013-11-07 12:06:00,
2013-11-07 07:11:00,34.3,31.3,30.17,West,270,0.0,1.5,89,0.00,,,0.00,WUHU216HW,2013-11-07 12:11:00,
2013-11-07 07:16:00,34.3,31.3,30.17,West,270,2.2,2.2,89,0.00,,,0.00,WUHU216HW,2013-11-07 12:16:00,
2013-11-07 07:21:00,34.1,31.1,30.17,West,270,0.0,2.2,89,0.00,,,0.00,WUHU216HW,2013-11-07 12:21:00,
2013-11-07 07:26:00,33.9,30.9,30.18,WSW,248,0.0,2.2,89,0.00,,,0.00,WUHU216HW,2013-11-07 12:26:00,
2013-11-07 07:31:00,33.8,30.8,30.18,West,270,0.0,0.0,89,0.00,,,0.00,WUHU216HW,2013-11-07 12:31:00,
2013-11-07 07:36:00,33.6,30.6,30.18,West,270,2.6,2.6,89,0.00,,,0.00,WUHU216HW,2013-11-07 12:36:00,
2013-11-07 07:41:00,33.6,30.6,30.19,West,270,0.0,2.6,89,0.00,,,0.00,WUHU216HW,2013-11-07 12:41:00,
2013-11-07 07:46:00,33.6,30.6,30.19,West,270,0.0,2.6,89,0.00,,,0.00,WUHU216HW,2013-11-07 12:46:00,
2013-11-07 07:51:00,33.6,30.6,30.19,West,270,0.0,0.0,89,0.00,,,0.00,WUHU216HW,2013-11-07 12:51:00,
2013-11-07 07:56:00,33.6,30.6,30.19,West,270,0.6,2.9,89,0.00,,,0.00,WUHU216HW,2013-11-07 12:56:00,
2013-11-07 08:01:00,33.6,30.6,30.19,West,270,0.0,2.9,89,0.00,,,0.00,WUHU216HW,2013-11-07 13:01:00,
2013-11-07 08:06:00,33.6,30.6,30.20,West,270,0.0,2.0,89,0.00,,,0.00,WUHU216HW,2013-11-07 13:06:00,
2013-11-07 08:11:00,33.6,30.6,30.20,WNW,293,0.0,2.0,89,0.00,,,0.00,WUHU216HW,2013-11-07 13:11:00,
2013-11-07 08:16:00,33.6,30.6,30.20,West,270,0.0,0.0,89,0.00,,,0.00,WUHU216HW,2013-11-07 13:16:00,
2013-11-07 08:21:00,33.8,30.8,30.20,WNW,293,0.0,0.0,89,0.00,,,0.00,WUHU216HW,2013-11-07 13:21:00,
2013-11-07 08:26:00,33.9,30.9,30.21,WSW,248,0.0,2.0,89,0.00,,,0.00,WUHU216HW,2013-11-07 13:26:00,
2013-11-07 08:31:00,34.3,31.3,30.21,NW,315,0.0,2.0,89,0.00,,,0.00,WUHU216HW,2013-11-07 13:31:00,
2013-11-07 08:36:00,34.3,31.3,30.22,NW,315,0.0,0.0,89,0.00,,,0.00,WUHU216HW,2013-11-07 13:36:00,
2013-11-07 08:41:00,34.3,31.3,30.22,NW,315,0.0,3.5,89,0.00,,,0.00,WUHU216HW,2013-11-07 13:41:00,
2013-11-07 08:47:00,34.5,31.5,30.22,NW,315,3.5,3.5,89,0.00,,,0.00,WUHU216HW,2013-11-07 13:47:00,
2013-11-07 08:52:00,34.8,31.8,30.22,NNW,338,4.2,4.2,89,0.00,,,0.00,WUHU216HW,2013-11-07 13:52:00,
2013-11-07 08:57:00,35.2,31.9,30.22,WNW,293,0.0,4.2,88,0.00,,,0.00,WUHU216HW,2013-11-07 13:57:00,
2013-11-07 09:02:00,35.2,31.9,30.22,WNW,293,0.0,0.0,88,0.00,,,0.00,WUHU216HW,2013-11-07 14:02:00,
2013-11-07 09:07:00,35.4,32.1,30.22,WSW,248,5.5,5.5,88,0.00,,,0.00,WUHU216HW,2013-11-07 14:07:00,
2013-11-07 09:12:00,35.7,32.5,30.23,WSW,248,0.0,5.5,88,0.00,,,0.00,WUHU216HW,2013-11-07 14:12:00,
2013-11-07 09:17:00,35.7,32.5,30.23,WNW,293,0.0,0.0,88,0.00,,,0.00,WUHU216HW,2013-11-07 14:17:00,
2013-11-07 09:22:00,36.1,32.8,30.22,WSW,248,0.0,0.0,88,0.00,,,0.00,WUHU216HW,2013-11-07 14:22:00,
2013-11-07 09:27:00,36.3,32.7,30.23,WNW,293,0.0,0.0,87,0.00,,,0.00,WUHU216HW,2013-11-07 14:27:00,
2013-11-07 09:32:00,36.3,32.7,30.23,West,270,0.0,0.0,87,0.00,,,0.00,WUHU216HW,2013-11-07 14:32:00,
2013-11-07 09:37:00,36.5,32.9,30.23,West,270,0.0,0.0,87,0.00,,,0.00,WUHU216HW,2013-11-07 14:37:00,
2013-11-07 09:42:00,37.0,33.1,30.23,West,270,0.0,0.0,86,0.00,,,0.00,WUHU216HW,2013-11-07 14:42:00,
2013-11-07 09:47:00,37.2,33.3,30.23,NW,315,0.0,1.3,86,0.00,,,0.00,WUHU216HW,2013-11-07 14:47:00,
2013-11-07 09:52:00,37.4,33.5,30.23,NW,315,0.0,1.3,86,0.00,,,0.00,WUHU216HW,2013-11-07 14:52:00,
2013-11-07 09:57:00,37.9,34.0,30.24,North,0,0.0,0.0,86,0.00,,,0.00,WUHU216HW,2013-11-07 14:57:00,
2013-11-07 10:02:00,38.1,33.9,30.24,NW,315,0.0,5.1,85,0.00,,,0.00,WUHU216HW,2013-11-07 15:02:00,
2013-11-07 10:07:00,38.3,34.1,30.23,West,270,0.0,5.1,85,0.00,,,0.00,WUHU216HW,2013-11-07 15:07:00,
2013-11-07 10:12:00,38.4,34.0,30.23,NW,315,0.0,0.4,84,0.00,,,0.00,WUHU216HW,2013-11-07 15:12:00,
2013-11-07 10:17:00,38.8,34.4,30.23,NNE,23,0.0,3.3,84,0.00,,,0.00,WUHU216HW,2013-11-07 15:17:00,
2013-11-07 10:22:00,38.8,34.4,30.23,WNW,293,3.8,3.8,84,0.00,,,0.00,WUHU216HW,2013-11-07 15:22:00,
2013-11-07 10:27:00,39.3,34.6,30.23,SW,225,0.0,3.8,83,0.00,,,0.00,WUHU216HW,2013-11-07 15:27:00,
2013-11-07 10:32:00,39.3,34.6,30.23,WNW,293,0.0,1.3,83,0.00,,,0.00,WUHU216HW,2013-11-07 15:32:00,
2013-11-07 10:37:00,39.7,34.9,30.23,North,0,2.0,2.0,83,0.00,,,0.00,WUHU216HW,2013-11-07 15:37:00,
2013-11-07 10:42:00,40.2,35.4,30.22,WSW,248,1.1,2.0,83,0.00,,,0.00,WUHU216HW,2013-11-07 15:42:00,
2013-11-07 10:47:00,40.6,35.5,30.23,NW,315,4.0,4.0,82,0.00,,,0.00,WUHU216HW,2013-11-07 15:47:00,
2013-11-07 10:52:00,40.8,35.3,30.23,SW,225,0.0,4.0,81,0.00,,,0.00,WUHU216HW,2013-11-07 15:52:00,
2013-11-07 10:57:00,41.1,35.4,30.24,NW,315,0.0,4.0,80,0.00,,,0.00,WUHU216HW,2013-11-07 15:57:00,
2013-11-07 11:02:00,41.5,35.4,30.23,NW,315,1.1,1.1,79,0.00,,,0.00,WUHU216HW,2013-11-07 16:02:00,
2013-11-07 11:07:00,41.7,35.6,30.23,West,270,1.5,1.5,79,0.00,,,0.00,WUHU216HW,2013-11-07 16:07:00,
2013-11-07 11:12:00,42.0,35.6,30.23,West,270,0.0,1.5,78,0.00,,,0.00,WUHU216HW,2013-11-07 16:12:00,
2013-11-07 11:17:00,42.4,36.0,30.23,WNW,293,0.0,0.0,78,0.00,,,0.00,WUHU216HW,2013-11-07 16:17:00,
2013-11-07 11:22:00,42.4,35.3,30.23,NNE,23,0.0,0.0,76,0.00,,,0.00,WUHU216HW,2013-11-07 16:22:00,
2013-11-07 11:27:00,42.6,35.5,30.23,SW,225,3.3,3.3,76,0.00,,,0.00,WUHU216HW,2013-11-07 16:27:00,
2013-11-07 11:32:00,42.9,35.9,30.22,NW,315,5.3,5.3,76,0.00,,,0.00,WUHU216HW,2013-11-07 16:32:00,
2013-11-07 11:37:00,43.1,36.0,30.22,WNW,293,4.2,5.3,76,0.00,,,0.00,WUHU216HW,2013-11-07 16:37:00,
2013-11-07 11:42:00,43.5,36.1,30.22,NNW,338,6.2,6.2,75,0.00,,,0.00,WUHU216HW,2013-11-07 16:42:00,
2013-11-07 11:47:00,43.5,35.7,30.22,NNW,338,0.0,6.2,74,0.00,,,0.00,WUHU216HW,2013-11-07 16:47:00,
2013-11-07 11:52:00,43.7,35.9,30.22,NW,315,0.0,6.2,74,0.00,,,0.00,WUHU216HW,2013-11-07 16:52:00,
2013-11-07 11:57:00,44.0,35.6,30.23,South,180,2.0,5.1,72,0.00,,,0.00,WUHU216HW,2013-11-07 16:57:00,
2013-11-07 11:59:00,44.2,35.7,30.23,NW,315,4.6,5.1,72,0.00,,,0.00,WUHU216HW,2013-11-07 16:59:00,
2013-11-07 12:15:00,44.4,35.2,30.23,West,270,3.8,4.6,70,0.00,,,0.00,WUHU216HW,2013-11-07 17:15:00,
2013-11-07 12:23:00,44.9,35.3,30.21,West,270,0.0,1.7,69,0.00,,,0.00,WUHU216HW,2013-11-07 17:23:00,
2013-11-07 12:28:00,45.3,35.7,30.21,WNW,293,5.1,5.1,69,0.00,,,0.00,WUHU216HW,2013-11-07 17:28:00,
2013-11-07 12:33:00,45.6,35.7,30.21,WSW,248,0.0,5.1,68,0.00,,,0.00,WUHU216HW,2013-11-07 17:33:00,
2013-11-07 12:38:00,45.6,35.3,30.20,NNW,338,0.0,5.1,67,0.00,,,0.00,WUHU216HW,2013-11-07 17:38:00,
2013-11-07 12:43:00,45.6,34.5,30.20,NW,315,6.0,6.0,65,0.00,,,0.00,WUHU216HW,2013-11-07 17:43:00,
2013-11-07 12:48:00,46.0,34.8,30.20,NNW,338,0.0,6.0,65,0.00,,,0.00,WUHU216HW,2013-11-07 17:48:00,
2013-11-07 12:51:00,46.0,34.8,30.19,SW,225,2.2,6.0,65,0.00,,,0.00,WUHU216HW,2013-11-07 17:51:00,
2013-11-07 12:58:00,46.4,34.4,30.19,SSW,203,2.6,4.0,63,0.00,,,0.00,WUHU216HW,2013-11-07 17:58:00,
2013-11-07 13:08:00,46.5,34.2,30.19,WSW,248,0.0,5.5,62,0.00,,,0.00,WUHU216HW,2013-11-07 18:08:00,
2013-11-07 13:18:00,46.9,34.1,30.18,NW,315,3.8,6.9,61,0.00,,,0.00,WUHU216HW,2013-11-07 18:18:00,
2013-11-07 13:28:00,47.4,34.7,30.18,WNW,293,6.7,6.7,61,0.00,,,0.00,WUHU216HW,2013-11-07 18:28:00,
2013-11-07 13:38:00,47.8,34.2,30.18,SW,225,0.6,6.7,59,0.00,,,0.00,WUHU216HW,2013-11-07 18:38:00,
2013-11-07 13:47:00,48.0,33.4,30.18,SW,225,2.6,5.8,57,0.00,,,0.00,WUHU216HW,2013-11-07 18:47:00,
2013-11-07 13:57:00,48.0,33.0,30.18,NW,315,0.0,6.2,56,0.00,,,0.00,WUHU216HW,2013-11-07 18:57:00,
2013-11-07 14:07:00,48.0,32.5,30.18,WSW,248,0.0,4.0,55,0.00,,,0.00,WUHU216HW,2013-11-07 19:07:00,
2013-11-07 14:17:00,48.2,32.7,30.17,NW,315,4.6,5.1,55,0.00,,,0.00,WUHU216HW,2013-11-07 19:17:00,
2013-11-07 14:27:00,48.0,32.0,30.17,NNW,338,0.0,7.6,54,0.00,,,0.00,WUHU216HW,2013-11-07 19:27:00,
2013-11-07 14:37:00,48.0,32.0,30.17,NW,315,5.1,6.2,54,0.00,,,0.00,WUHU216HW,2013-11-07 19:37:00,
2013-11-07 14:47:00,47.6,31.7,30.17,SSW,203,5.1,6.4,54,0.00,,,0.00,WUHU216HW,2013-11-07 19:47:00,
2013-11-07 14:57:00,47.6,31.7,30.17,WSW,248,3.1,6.2,54,0.00,,,0.00,WUHU216HW,2013-11-07 19:57:00,
2013-11-07 15:07:00,47.4,31.1,30.16,West,270,0.0,4.4,53,0.00,,,0.00,WUHU216HW,2013-11-07 20:07:00,
2013-11-07 15:16:00,47.3,31.4,30.16,NW,315,6.7,6.7,54,0.00,,,0.00,WUHU216HW,2013-11-07 20:16:00,
2013-11-07 15:26:00,47.3,31.4,30.16,WNW,293,0.0,6.9,54,0.00,,,0.00,WUHU216HW,2013-11-07 20:26:00,
2013-11-07 15:36:00,47.3,31.4,30.15,NNW,338,0.0,5.5,54,0.00,,,0.00,WUHU216HW,2013-11-07 20:36:00,
2013-11-07 15:46:00,47.3,30.9,30.16,West,270,4.0,6.0,53,0.00,,,0.00,WUHU216HW,2013-11-07 20:46:00,
2013-11-07 15:56:00,47.4,31.1,30.15,WNW,293,4.2,6.0,53,0.00,,,0.00,WUHU216HW,2013-11-07 20:56:00,
2013-11-07 16:06:00,47.4,31.1,30.16,SW,225,3.8,4.2,53,0.00,,,0.00,WUHU216HW,2013-11-07 21:06:00,
2013-11-07 16:16:00,47.4,31.1,30.15,SW,225,0.0,6.2,53,0.00,,,0.00,WUHU216HW,2013-11-07 21:16:00,
2013-11-07 16:26:00,47.8,31.9,30.15,West,270,5.1,5.1,54,0.00,,,0.00,WUHU216HW,2013-11-07 21:26:00,
2013-11-07 16:39:00,47.8,31.4,30.15,West,270,1.7,5.1,53,0.00,,,0.00,WUHU216HW,2013-11-07 21:39:00,
2013-11-07 16:44:00,47.6,31.2,30.15,WSW,248,0.0,1.7,53,0.00,,,0.00,WUHU216HW,2013-11-07 21:44:00,
2013-11-07 16:49:00,47.4,31.1,30.15,West,270,3.1,5.8,53,0.00,,,0.00,WUHU216HW,2013-11-07 21:49:00,
2013-11-07 16:54:00,47.3,31.4,30.15,West,270,0.0,5.8,54,0.00,,,0.00,WUHU216HW,2013-11-07 21:54:00,
2013-11-07 16:59:00,47.1,31.2,30.15,West,270,0.0,4.0,54,0.00,,,0.00,WUHU216HW,2013-11-07 21:59:00,
2013-11-07 17:04:00,46.9,31.0,30.15,SW,225,4.2,4.2,54,0.00,,,0.00,WUHU216HW,2013-11-07 22:04:00,
2013-11-07 17:09:00,46.7,31.3,30.15,SW,225,0.0,4.2,55,0.00,,,0.00,WUHU216HW,2013-11-07 22:09:00,
2013-11-07 17:14:00,46.5,31.1,30.16,West,270,0.0,0.0,55,0.00,,,0.00,WUHU216HW,2013-11-07 22:14:00,
2013-11-07 17:19:00,46.4,31.4,30.16,West,270,0.0,0.0,56,0.00,,,0.00,WUHU216HW,2013-11-07 22:19:00,
2013-11-07 17:24:00,46.2,31.2,30.16,SW,225,0.8,0.8,56,0.00,,,0.00,WUHU216HW,2013-11-07 22:24:00,
2013-11-07 17:29:00,46.0,31.1,30.16,West,270,0.0,1.5,56,0.00,,,0.00,WUHU216HW,2013-11-07 22:29:00,
2013-11-07 17:34:00,45.8,30.9,30.16,West,270,0.0,1.5,56,0.00,,,0.00,WUHU216HW,2013-11-07 22:34:00,
2013-11-07 17:39:00,45.6,31.2,30.16,West,270,0.0,0.0,57,0.00,,,0.00,WUHU216HW,2013-11-07 22:39:00,
2013-11-07 17:44:00,45.3,31.3,30.16,West,270,0.0,0.0,58,0.00,,,0.00,WUHU216HW,2013-11-07 22:44:00,
2013-11-07 17:49:00,45.1,31.6,30.16,West,270,0.0,0.0,59,0.00,,,0.00,WUHU216HW,2013-11-07 22:49:00,
2013-11-07 17:54:00,44.9,31.5,30.16,West,270,0.0,0.0,59,0.00,,,0.00,WUHU216HW,2013-11-07 22:54:00,
2013-11-07 17:59:00,44.7,31.8,30.16,West,270,0.0,0.0,60,0.00,,,0.00,WUHU216HW,2013-11-07 22:59:00,
2013-11-07 18:04:00,44.4,31.8,30.16,West,270,0.0,0.0,61,0.00,,,0.00,WUHU216HW,2013-11-07 23:04:00,
2013-11-07 18:13:00,44.4,32.2,30.16,West,270,0.0,0.0,62,0.00,,,0.00,WUHU216HW,2013-11-07 23:13:00,
2013-11-07 18:14:00,44.0,32.2,30.16,West,270,0.0,0.0,63,0.00,,,0.00,WUHU216HW,2013-11-07 23:14:00,
2013-11-07 18:20:00,43.8,32.4,30.16,West,270,0.0,0.0,64,0.00,,,0.00,WUHU216HW,2013-11-07 23:20:00,
2013-11-07 18:33:00,43.7,32.2,30.16,West,270,0.0,0.0,64,0.00,,,0.00,WUHU216HW,2013-11-07 23:33:00,
2013-11-07 18:41:00,43.5,32.5,30.16,West,270,0.0,0.0,65,0.00,,,0.00,WUHU216HW,2013-11-07 23:41:00,
2013-11-07 18:43:00,43.3,32.7,30.16,West,270,0.0,0.0,66,0.00,,,0.00,WUHU216HW,2013-11-07 23:43:00,
2013-11-07 18:50:00,43.1,32.5,30.16,West,270,0.0,0.0,66,0.00,,,0.00,WUHU216HW,2013-11-07 23:50:00,
2013-11-07 19:00:00,42.9,32.7,30.16,West,270,0.0,0.0,67,0.00,,,0.00,WUHU216HW,2013-11-08 00:00:00,
2013-11-07 19:13:00,42.6,32.8,30.16,West,270,0.0,0.0,68,0.00,,,0.00,WUHU216HW,2013-11-08 00:13:00,
2013-11-07 19:18:00,42.4,32.6,30.15,West,270,0.0,0.0,68,0.00,,,0.00,WUHU216HW,2013-11-08 00:18:00,
2013-11-07 19:23:00,42.4,33.0,30.16,West,270,0.0,0.0,69,0.00,,,0.00,WUHU216HW,2013-11-08 00:23:00,
2013-11-07 19:28:00,42.0,32.6,30.16,West,270,0.0,0.0,69,0.00,,,0.00,WUHU216HW,2013-11-08 00:28:00,
2013-11-07 19:33:00,41.9,32.5,30.16,West,270,0.0,0.0,69,0.00,,,0.00,WUHU216HW,2013-11-08 00:33:00,
2013-11-07 19:38:00,41.7,32.3,30.16,West,270,0.0,0.0,69,0.00,,,0.00,WUHU216HW,2013-11-08 00:38:00,
2013-11-07 19:43:00,41.5,32.5,30.16,West,270,0.0,0.0,70,0.00,,,0.00,WUHU216HW,2013-11-08 00:43:00,
2013-11-07 19:48:00,41.5,32.8,30.16,West,270,0.0,0.0,71,0.00,,,0.00,WUHU216HW,2013-11-08 00:48:00,
2013-11-07 19:53:00,41.3,32.6,30.16,West,270,0.0,0.0,71,0.00,,,0.00,WUHU216HW,2013-11-08 00:53:00,
2013-11-07 19:58:00,41.1,32.5,30.16,West,270,0.0,0.0,71,0.00,,,0.00,WUHU216HW,2013-11-08 00:58:00,
2013-11-07 20:03:00,41.1,32.5,30.16,West,270,0.0,0.0,71,0.00,,,0.00,WUHU216HW,2013-11-08 01:03:00,
2013-11-07 20:08:00,41.0,32.3,30.15,West,270,0.0,0.0,71,0.00,,,0.00,WUHU216HW,2013-11-08 01:08:00,
2013-11-07 20:13:00,40.8,32.4,30.16,West,270,0.0,0.0,72,0.00,,,0.00,WUHU216HW,2013-11-08 01:13:00,
2013-11-07 20:18:00,40.8,32.4,30.15,West,270,0.0,0.0,72,0.00,,,0.00,WUHU216HW,2013-11-08 01:18:00,
2013-11-07 20:23:00,40.6,32.2,30.16,West,270,0.0,0.0,72,0.00,,,0.00,WUHU216HW,2013-11-08 01:23:00,
2013-11-07 20:28:00,40.6,32.6,30.15,West,270,0.0,0.0,73,0.00,,,0.00,WUHU216HW,2013-11-08 01:28:00,
2013-11-07 20:33:00,40.6,32.6,30.16,West,270,0.0,0.0,73,0.00,,,0.00,WUHU216HW,2013-11-08 01:33:00,
2013-11-07 20:38:00,40.2,32.2,30.16,West,270,0.0,0.0,73,0.00,,,0.00,WUHU216HW,2013-11-08 01:38:00,
2013-11-07 20:43:00,40.2,32.2,30.16,West,270,0.0,0.0,73,0.00,,,0.00,WUHU216HW,2013-11-08 01:43:00,
2013-11-07 20:48:00,40.1,32.0,30.15,West,270,0.0,0.0,73,0.00,,,0.00,WUHU216HW,2013-11-08 01:48:00,
2013-11-07 20:50:00,39.9,32.2,30.16,West,270,0.0,0.0,74,0.00,,,0.00,WUHU216HW,2013-11-08 01:50:00,
2013-11-07 20:58:00,39.7,32.0,30.16,West,270,0.0,0.0,74,0.00,,,0.00,WUHU216HW,2013-11-08 01:58:00,
2013-11-07 21:16:00,39.5,31.9,30.16,West,270,0.0,0.0,74,0.00,,,0.00,WUHU216HW,2013-11-08 02:16:00,
2013-11-07 21:22:00,39.3,32.0,30.16,West,270,0.0,0.0,75,0.00,,,0.00,WUHU216HW,2013-11-08 02:22:00,
2013-11-07 21:27:00,39.3,32.0,30.16,WSW,248,0.0,2.2,75,0.00,,,0.00,WUHU216HW,2013-11-08 02:27:00,
2013-11-07 21:32:00,39.3,32.0,30.17,West,270,0.0,2.2,75,0.00,,,0.00,WUHU216HW,2013-11-08 02:32:00,
2013-11-07 21:34:00,39.3,32.0,30.17,West,270,0.0,0.0,75,0.00,,,0.00,WUHU216HW,2013-11-08 02:34:00,
2013-11-07 21:40:00,39.3,32.0,30.17,West,270,0.0,0.0,75,0.00,,,0.00,WUHU216HW,2013-11-08 02:40:00,
2013-11-07 21:47:00,39.3,32.0,30.17,West,270,0.0,0.0,75,0.00,,,0.00,WUHU216HW,2013-11-08 02:47:00,
2013-11-07 22:01:00,39.5,32.2,30.18,WNW,293,0.0,0.0,75,0.00,,,0.00,WUHU216HW,2013-11-08 03:01:00,
2013-11-07 22:06:00,39.7,32.0,30.18,West,270,0.0,0.0,74,0.00,,,0.00,WUHU216HW,2013-11-08 03:06:00,
2013-11-07 22:11:00,39.9,32.2,30.18,WNW,293,0.0,1.5,74,0.00,,,0.00,WUHU216HW,2013-11-08 03:11:00,
2013-11-07 22:16:00,40.1,32.4,30.18,West,270,0.0,1.5,74,0.00,,,0.00,WUHU216HW,2013-11-08 03:16:00,
2013-11-07 22:21:00,40.2,32.2,30.19,WNW,293,0.6,2.2,73,0.00,,,0.00,WUHU216HW,2013-11-08 03:21:00,
2013-11-07 22:26:00,40.4,32.1,30.19,NW,315,10.5,10.5,72,0.00,,,0.00,WUHU216HW,2013-11-08 03:26:00,
2013-11-07 22:31:00,40.8,32.4,30.19,NW,315,6.9,10.5,72,0.00,,,0.00,WUHU216HW,2013-11-08 03:31:00,
2013-11-07 22:36:00,40.8,32.1,30.19,WNW,293,5.8,6.9,71,0.00,,,0.00,WUHU216HW,2013-11-08 03:36:00,
2013-11-07 22:41:00,40.8,31.8,30.19,NW,315,6.2,6.9,70,0.00,,,0.00,WUHU216HW,2013-11-08 03:41:00,
2013-11-07 22:46:00,40.8,31.8,30.20,NNW,338,6.9,6.9,70,0.00,,,0.00,WUHU216HW,2013-11-08 03:46:00,
2013-11-07 22:51:00,40.6,31.6,30.20,WNW,293,6.2,6.9,70,0.00,,,0.00,WUHU216HW,2013-11-08 03:51:00,
2013-11-07 22:56:00,40.6,31.6,30.20,NNW,338,5.5,6.9,70,0.00,,,0.00,WUHU216HW,2013-11-08 03:56:00,
2013-11-07 23:01:00,40.2,31.2,30.20,NW,315,0.0,5.5,70,0.00,,,0.00,WUHU216HW,2013-11-08 04:01:00,
2013-11-07 23:06:00,40.1,31.4,30.20,West,270,0.0,0.0,71,0.00,,,0.00,WUHU216HW,2013-11-08 04:06:00,
2013-11-07 23:08:00,39.9,31.2,30.21,WSW,248,0.0,6.2,71,0.00,,,0.00,WUHU216HW,2013-11-08 04:08:00,
2013-11-07 23:16:00,39.9,31.2,30.20,NW,315,0.0,6.2,71,0.00,,,0.00,WUHU216HW,2013-11-08 04:16:00,
2013-11-07 23:29:00,39.5,30.8,30.21,WNW,293,0.0,0.0,71,0.00,,,0.00,WUHU216HW,2013-11-08 04:29:00,
2013-11-07 23:31:00,39.3,30.7,30.21,NW,315,0.0,0.0,71,0.00,,,0.00,WUHU216HW,2013-11-08 04:31:00,
2013-11-07 23:37:00,39.3,31.0,30.21,NW,315,0.0,0.0,72,0.00,,,0.00,WUHU216HW,2013-11-08 04:37:00,
2013-11-07 23:44:00,39.0,30.7,30.21,West,270,0.0,0.0,72,0.00,,,0.00,WUHU216HW,2013-11-08 04:44:00,
2013-11-07 23:50:00,39.0,30.7,30.20,West,270,0.0,0.0,72,0.00,,,0.00,WUHU216HW,2013-11-08 04:50:00,
2013-11-07 23:56:00,38.8,30.5,30.20,West,270,0.0,0.0,72,0.00,,,0.00,WUHU216HW,2013-11-08 04:56:00,